Location: Buckenweiler
(49.0667°N, 10.2500°E)
Time: 09:45:11
(UTC+00:00)

Cosmos 1943 Rocket - Pass Details

Date: 18 January 2026
Orbit: 811 x 842 km, 71.0° (Epoch: 16 February)

Event Time Altitude Azimuth Distance (km) Brightness Sun altitude
Exits shadow 04:25:32 25° 194° (SSW) 1,572 3.5 -25.7°
Maximum altitude 04:28:45 73° 115° (ESE) 853 2.3 -25.2°
Drops below altitude 10° 04:34:14 10° 32° (NNE) 2,410 4.9 -24.3°
Sets 04:36:40 0° 30° (NNE) 3,348 5.7 -23.9°
